| time (UTC) | temp F | wind direction | speed knots | gust knots | rain 1hr in | rain 24hr in | rain mn in | humidity % | barometer mb |
| 20260906212204 | 80 | 62 | 6.1 | 10.4 | 0.00 | 0.00 | 0.00 | 60 | 1012.8 |
| 20260906210204 | 81 | 39 | 3.5 | 7.0 | 0.00 | 0.00 | 0.00 | 58 | 1012.6 |
| 20260906205704 | 82 | 0 | 2.6 | 7.0 | 0.00 | 0.00 | 0.00 | 56 | 1012.6 |
| 20260906205204 | 82 | 344 | 4.3 | 8.7 | 0.00 | 0.00 | 0.00 | 56 | 1012.5 |
| 20260906204705 | 82 | 30 | 2.6 | 5.2 | 0.00 | 0.00 | 0.00 | 56 | 1012.5 |
| 20260906204204 | 82 | 31 | 4.3 | 7.8 | 0.00 | 0.00 | 0.00 | 57 | 1012.4 |
| 20260906203204 | 82 | 61 | 4.3 | 11.3 | 0.00 | 0.00 | 0.00 | 58 | 1012.4 |
| 20260906202704 | 82 | 338 | 4.3 | 7.8 | 0.00 | 0.00 | 0.00 | 55 | 1012.5 |
| 20260906202204 | 82 | 43 | 2.6 | 7.0 | 0.00 | 0.00 | 0.00 | 59 | 1012.5 |
| 20260906201705 | 82 | 353 | 2.6 | 6.1 | 0.00 | 0.00 | 0.00 | 57 | 1012.4 |
| 20260906201204 | 82 | 21 | 3.5 | 6.1 | 0.00 | 0.00 | 0.00 | 58 | 1012.4 |
| 20260906200704 | 83 | 325 | 3.5 | 7.8 | 0.00 | 0.00 | 0.00 | 56 | 1012.5 |
| 20260906200205 | 83 | 51 | 2.6 | 10.4 | 0.00 | 0.00 | 0.00 | 57 | 1012.5 |
| 20260906195705 | 82 | 60 | 2.6 | 7.8 | 0.00 | 0.00 | 0.00 | 58 | 1012.4 |
| 20260906194204 | 82 | 2 | 4.3 | 10.4 | 0.00 | 0.00 | 0.00 | 56 | 1012.6 |
| 20260906193705 | 82 | 2 | 4.3 | 7.8 | 0.00 | 0.00 | 0.00 | 57 | 1012.6 |
| 20260906193205 | 82 | 13 | 4.3 | 7.8 | 0.00 | 0.00 | 0.00 | 54 | 1012.7 |
| 20260906192705 | 82 | 339 | 6.1 | 10.4 | 0.00 | 0.00 | 0.00 | 55 | 1012.7 |
| 20260906192204 | 82 | 356 | 4.3 | 8.7 | 0.00 | 0.00 | 0.00 | 58 | 1012.7 |
| 20260906191704 | 82 | 56 | 3.5 | 8.7 | 0.00 | 0.00 | 0.00 | 58 | 1012.7 |
| 20260906191204 | 82 | 338 | 2.6 | 7.8 | 0.00 | 0.00 | 0.00 | 57 | 1012.6 |
| 20260906190705 | 82 | 345 | 5.2 | 10.4 | 0.00 | 0.00 | 0.00 | 56 | 1012.6 |
| 20260906185704 | 82 | 351 | 2.6 | 10.4 | 0.00 | 0.00 | 0.00 | 58 | 1012.8 |
| 20260906185204 | 82 | 11 | 4.3 | 12.2 | 0.00 | 0.00 | 0.00 | 58 | 1012.8 |
| 20260906184704 | 82 | 35 | 5.2 | 10.4 | 0.00 | 0.00 | 0.00 | 56 | 1012.8 |
| 20260906184204 | 82 | 34 | 3.5 | 7.0 | 0.00 | 0.00 | 0.00 | 61 | 1012.9 |
| 20260906183704 | 81 | 309 | 3.5 | 8.7 | 0.00 | 0.00 | 0.00 | 63 | 1013.0 |
| 20260906183204 | 82 | 358 | 5.2 | 10.4 | 0.00 | 0.00 | 0.00 | 61 | 1013.1 |
| 20260906182704 | 82 | 351 | 2.6 | 7.0 | 0.00 | 0.00 | 0.00 | 61 | 1013.1 |
| 20260906182204 | 82 | 30 | 4.3 | 8.7 | 0.00 | 0.00 | 0.00 | 61 | 1013.2 |
| 20260906181204 | 81 | 348 | 5.2 | 10.4 | 0.00 | 0.00 | 0.00 | 58 | 1013.2 |
| 20260906180704 | 81 | 63 | 5.2 | 8.7 | 0.00 | 0.00 | 0.00 | 63 | 1013.2 |
| 20260906180205 | 81 | 356 | 3.5 | 7.8 | 0.00 | 0.00 | 0.00 | 64 | 1013.2 |
| 20260906175704 | 81 | 17 | 6.1 | 10.4 | 0.00 | 0.00 | 0.00 | 61 | 1013.3 |
| 20260906175204 | 81 | 46 | 3.5 | 7.8 | 0.00 | 0.00 | 0.00 | 64 | 1013.3 |
| 20260906174704 | 81 | 59 | 4.3 | 10.4 | 0.00 | 0.00 | 0.00 | 60 | 1013.2 |
| 20260906174204 | 81 | 7 | 3.5 | 8.7 | 0.00 | 0.00 | 0.00 | 63 | 1013.3 |
| 20260906173704 | 81 | 48 | 5.2 | 10.4 | 0.00 | 0.00 | 0.00 | 66 | 1013.4 |
| 20260906172704 | 81 | 28 | 4.3 | 10.4 | 0.00 | 0.00 | 0.00 | 63 | 1013.5 |
| 20260906172204 | 81 | 353 | 1.7 | 7.8 | 0.00 | 0.00 | 0.00 | 63 | 1013.4 |
| 20260906171704 | 81 | 39 | 5.2 | 10.4 | 0.00 | 0.00 | 0.00 | 66 | 1013.4 |
| 20260906171204 | 81 | 359 | 3.5 | 11.3 | 0.00 | 0.00 | 0.00 | 62 | 1013.5 |
| 20260906170205 | 81 | 323 | 2.6 | 8.7 | 0.00 | 0.00 | 0.00 | 64 | 1013.5 |
| 20260906165204 | 81 | 356 | 2.6 | 7.8 | 0.00 | 0.00 | 0.00 | 63 | 1013.5 |
| 20260906164704 | 80 | 33 | 3.5 | 6.1 | 0.00 | 0.00 | 0.00 | 64 | 1013.5 |
| 20260906164204 | 80 | 14 | 4.3 | 7.8 | 0.00 | 0.00 | 0.00 | 64 | 1013.5 |
| 20260906162704 | 80 | 68 | 3.5 | 7.8 | 0.00 | 0.00 | 0.00 | 63 | 1013.4 |
| 20260906162204 | 80 | 36 | 4.3 | 10.4 | 0.00 | 0.00 | 0.00 | 66 | 1013.4 |
| 20260906161704 | 80 | 48 | 2.6 | 7.8 | 0.00 | 0.00 | 0.00 | 63 | 1013.4 |
| 20260906161205 | 80 | 23 | 2.6 | 7.8 | 0.00 | 0.00 | 0.00 | 66 | 1013.3 |
| 20260906160704 | 79 | 0 | 4.3 | 7.8 | 0.00 | 0.00 | 0.00 | 66 | 1013.4 |
| 20260906160204 | 79 | 13 | 1.7 | 7.0 | 0.00 | 0.00 | 0.00 | 69 | 1013.7 |
| 20260906154204 | 78 | 334 | 4.3 | 8.7 | 0.00 | 0.00 | 0.00 | 67 | 1013.8 |
| 20260906153704 | 78 | 5 | 4.3 | 8.7 | 0.00 | 0.00 | 0.00 | 66 | 1013.9 |
| 20260906152704 | 78 | 1 | 5.2 | 7.8 | 0.00 | 0.00 | 0.00 | 66 | 1013.6 |
| 20260906152204 | 79 | 346 | 4.3 | 7.8 | 0.00 | 0.00 | 0.00 | 68 | 1013.5 |
| 20260906151705 | 78 | 21 | 2.6 | 8.7 | 0.00 | 0.00 | 0.00 | 66 | 1013.5 |
| 20260906150704 | 78 | 16 | 2.6 | 6.1 | 0.00 | 0.00 | 0.00 | 67 | 1013.4 |
| 20260906150204 | 78 | 37 | 3.5 | 7.0 | 0.00 | 0.00 | 0.00 | 69 | 1013.5 |
| 20260906144704 | 78 | 33 | 5.2 | 8.7 | 0.00 | 0.00 | 0.00 | 68 | 1013.5 |
| 20260906144204 | 77 | 11 | 2.6 | 7.0 | 0.00 | 0.00 | 0.00 | 69 | 1013.4 |
| 20260906143704 | 77 | 33 | 4.3 | 8.7 | 0.00 | 0.00 | 0.00 | 68 | 1013.4 |
| 20260906143204 | 78 | 352 | 3.5 | 10.4 | 0.00 | 0.00 | 0.00 | 70 | 1013.4 |
| 20260906142704 | 77 | 60 | 4.3 | 8.7 | 0.00 | 0.00 | 0.00 | 68 | 1013.4 |
| 20260906140704 | 77 | 53 | 2.6 | 10.4 | 0.00 | 0.00 | 0.00 | 73 | 1013.1 |
| 20260906135704 | 76 | 32 | 3.5 | 7.0 | 0.00 | 0.00 | 0.00 | 69 | 1013.2 |
| 20260906135204 | 76 | 14 | 2.6 | 10.4 | 0.00 | 0.00 | 0.00 | 70 | 1013.2 |
| 20260906132703 | 75 | 49 | 2.6 | 7.8 | 0.00 | 0.00 | 0.00 | 72 | 1012.9 |
| 20260906132204 | 75 | 354 | 3.5 | 8.7 | 0.00 | 0.00 | 0.00 | 73 | 1012.9 |
| 20260906131704 | 74 | 19 | 4.3 | 7.0 | 0.00 | 0.00 | 0.00 | 74 | 1012.8 |
| 20260906131204 | 74 | 344 | 3.5 | 8.7 | 0.00 | 0.00 | 0.00 | 71 | 1012.9 |
| 20260906130204 | 74 | 3 | 4.3 | 7.8 | 0.00 | 0.00 | 0.00 | 72 | 1013.0 |
| 20260906125704 | 74 | 353 | 4.3 | 8.7 | 0.00 | 0.00 | 0.00 | 73 | 1012.9 |
| 20260906124704 | 74 | 41 | 2.6 | 7.0 | 0.00 | 0.00 | 0.00 | 73 | 1012.9 |
| 20260906124204 | 73 | 29 | 2.6 | 6.1 | 0.00 | 0.00 | 0.00 | 74 | 1012.8 |
| 20260906123704 | 73 | 19 | 3.5 | 6.1 | 0.00 | 0.00 | 0.00 | 74 | 1012.8 |
| 20260906123204 | 73 | 32 | 3.5 | 6.1 | 0.00 | 0.00 | 0.00 | 75 | 1012.9 |
| 20260906122704 | 73 | 55 | 2.6 | 7.8 | 0.00 | 0.00 | 0.00 | 75 | 1012.7 |
| 20260906122204 | 72 | 15 | 2.6 | 7.8 | 0.00 | 0.00 | 0.00 | 76 | 1012.8 |
| 20260906121704 | 72 | 17 | 3.5 | 7.8 | 0.00 | 0.00 | 0.00 | 77 | 1012.7 |
| 20260906120704 | 71 | 53 | 4.3 | 7.8 | 0.00 | 0.00 | 0.00 | 80 | 1012.7 |
| 20260906115704 | 69 | 64 | 4.3 | 7.8 | 0.00 | 0.00 | 0.00 | 83 | 1012.6 |
| 20260906114704 | 68 | 35 | 2.6 | 7.0 | 0.00 | 0.00 | 0.00 | 83 | 1012.5 |
| 20260906114204 | 68 | 47 | 2.6 | 5.2 | 0.00 | 0.00 | 0.00 | 84 | 1012.4 |
| 20260906112704 | 67 | 30 | 0.9 | 2.6 | 0.00 | 0.00 | 0.00 | 83 | 1012.3 |
| 20260906112203 | 67 | 41 | 1.7 | 4.3 | 0.00 | 0.00 | 0.00 | 83 | 1012.1 |
| 20260906111704 | 67 | 55 | 0.9 | 2.6 | 0.00 | 0.00 | 0.00 | 83 | 1012.1 |
| 20260906110704 | 67 | 56 | 0.9 | 2.6 | 0.00 | 0.00 | 0.00 | 83 | 1012.1 |
| 20260906110204 | 67 | 42 | 1.7 | 2.6 | 0.00 | 0.00 | 0.00 | 83 | 1012.0 |
| 20260906105204 | 67 | 58 | 3.5 | 5.2 | 0.00 | 0.00 | 0.00 | 83 | 1011.9 |
| 20260906104204 | 67 | 27 | 1.7 | 4.3 | 0.00 | 0.00 | 0.00 | 82 | 1011.6 |
| 20260906103704 | 67 | 55 | 2.6 | 6.1 | 0.00 | 0.00 | 0.00 | 82 | 1011.6 |
| 20260906103204 | 67 | 53 | 2.6 | 4.3 | 0.00 | 0.00 | 0.00 | 81 | 1011.5 |
| 20260906102704 | 67 | 49 | 1.7 | 5.2 | 0.00 | 0.00 | 0.00 | 81 | 1011.4 |
| 20260906102204 | 67 | 15 | 1.7 | 4.3 | 0.00 | 0.00 | 0.00 | 81 | 1011.4 |
| 20260906101204 | 67 | 66 | 1.7 | 2.6 | 0.00 | 0.00 | 0.00 | 81 | 1011.2 |
| 20260906100704 | 68 | 77 | 0.9 | 1.7 | 0.00 | 0.00 | 0.00 | 81 | 1011.2 |
| 20260906100204 | 68 | 73 | 0.9 | 1.7 | 0.00 | 0.00 | 0.00 | 81 | 1011.1 |
| 20260906095704 | 68 | 77 | 0.9 | 1.7 | 0.00 | 0.00 | 0.00 | 80 | 1011.0 |
| 20260906095204 | 68 | 358 | 0.0 | 0.9 | 0.00 | 0.00 | 0.00 | 80 | 1011.0 |
| 20260906094706 | 68 | 358 | 0.0 | 0.9 | 0.00 | 0.00 | 0.00 | 80 | 1010.9 |
| 20260906094205 | 68 | 354 | 0.0 | 1.7 | 0.00 | 0.00 | 0.00 | 79 | 1010.9 |
| 20260906093706 | 68 | 329 | 0.9 | 2.6 | 0.00 | 0.00 | 0.00 | 79 | 1010.8 |
| 20260906093205 | 68 | 15 | 1.7 | 2.6 | 0.00 | 0.00 | 0.00 | 79 | 1010.7 |
| 20260906092705 | 68 | 27 | 0.9 | 2.6 | 0.00 | 0.00 | 0.00 | 78 | 1010.7 |
| 20260906092206 | 68 | 39 | 0.9 | 2.6 | 0.00 | 0.00 | 0.00 | 78 | 1010.7 |
| 20260906090705 | 68 | 35 | 2.6 | 5.2 | 0.00 | 0.00 | 0.00 | 79 | 1010.4 |
| 20260906090206 | 68 | 54 | 2.6 | 4.3 | 0.00 | 0.00 | 0.00 | 79 | 1010.5 |
| 20260906085705 | 68 | 47 | 1.7 | 4.3 | 0.00 | 0.00 | 0.00 | 79 | 1010.4 |
| 20260906085205 | 68 | 24 | 1.7 | 2.6 | 0.00 | 0.00 | 0.00 | 79 | 1010.5 |
| 20260906084705 | 68 | 43 | 1.7 | 4.3 | 0.00 | 0.00 | 0.00 | 79 | 1010.4 |
| 20260906084205 | 68 | 18 | 0.9 | 1.7 | 0.00 | 0.00 | 0.00 | 78 | 1010.5 |
| 20260906083706 | 69 | 5 | 0.0 | 2.6 | 0.00 | 0.00 | 0.00 | 78 | 1010.5 |
| 20260906083205 | 69 | 48 | 0.9 | 2.6 | 0.00 | 0.00 | 0.00 | 78 | 1010.5 |
| 20260906082206 | 69 | 75 | 0.9 | 2.6 | 0.00 | 0.00 | 0.00 | 78 | 1010.4 |
| 20260906081705 | 69 | 68 | 1.7 | 4.3 | 0.00 | 0.00 | 0.00 | 78 | 1010.4 |
| 20260906081205 | 69 | 37 | 0.9 | 2.6 | 0.00 | 0.00 | 0.00 | 78 | 1010.3 |
| 20260906080705 | 69 | 44 | 0.9 | 4.3 | 0.00 | 0.00 | 0.00 | 78 | 1010.3 |
| 20260906080206 | 69 | 30 | 1.7 | 6.1 | 0.00 | 0.00 | 0.00 | 79 | 1010.2 |
| 20260906075706 | 69 | 39 | 2.6 | 6.1 | 0.00 | 0.00 | 0.00 | 80 | 1010.2 |
| 20260906075205 | 69 | 34 | 1.7 | 4.3 | 0.00 | 0.00 | 0.00 | 80 | 1010.2 |
| 20260906074705 | 69 | 58 | 2.6 | 4.3 | 0.00 | 0.00 | 0.00 | 80 | 1010.2 |
| 20260906074206 | 69 | 62 | 2.6 | 4.3 | 0.00 | 0.00 | 0.00 | 80 | 1010.1 |
| 20260906073706 | 69 | 1 | 1.7 | 2.6 | 0.00 | 0.00 | 0.00 | 80 | 1010.2 |
| 20260906073205 | 69 | 22 | 0.9 | 2.6 | 0.00 | 0.00 | 0.00 | 81 | 1010.1 |
| 20260906072706 | 68 | 350 | 0.9 | 2.6 | 0.00 | 0.00 | 0.00 | 81 | 1010.1 |
| 20260906072205 | 68 | 50 | 0.9 | 2.6 | 0.00 | 0.00 | 0.00 | 81 | 1010.0 |
| 20260906071705 | 68 | 48 | 1.7 | 4.3 | 0.00 | 0.00 | 0.00 | 81 | 1010.1 |
| 20260906071205 | 68 | 21 | 2.6 | 6.1 | 0.00 | 0.00 | 0.00 | 81 | 1010.1 |
| 20260906070206 | 68 | 10 | 0.9 | 2.6 | 0.00 | 0.00 | 0.00 | 82 | 1010.2 |
| 20260906065705 | 68 | 26 | 0.9 | 2.6 | 0.00 | 0.00 | 0.00 | 83 | 1010.2 |
| 20260906065206 | 68 | 356 | 0.0 | 1.7 | 0.00 | 0.00 | 0.00 | 83 | 1010.2 |
| 20260906064705 | 68 | 27 | 0.9 | 2.6 | 0.00 | 0.00 | 0.00 | 84 | 1010.2 |
| 20260906064205 | 68 | 52 | 0.9 | 1.7 | 0.00 | 0.00 | 0.00 | 84 | 1010.3 |
| 20260906063705 | 68 | 355 | 0.0 | 1.7 | 0.00 | 0.00 | 0.00 | 85 | 1010.2 |
| 20260906062705 | 68 | 83 | 0.0 | 2.6 | 0.00 | 0.00 | 0.00 | 86 | 1010.2 |
| 20260906062205 | 68 | 29 | 0.9 | 2.6 | 0.00 | 0.00 | 0.00 | 86 | 1010.2 |
| 20260906061206 | 67 | 42 | 0.9 | 2.6 | 0.00 | 0.00 | 0.00 | 87 | 1010.2 |
| 20260906060205 | 67 | 48 | 2.6 | 5.2 | 0.00 | 0.00 | 0.00 | 89 | 1010.2 |
| 20260906055706 | 67 | 43 | 1.7 | 2.6 | 0.00 | 0.00 | 0.00 | 89 | 1010.2 |
| 20260906055205 | 67 | 40 | 0.9 | 2.6 | 0.00 | 0.00 | 0.00 | 90 | 1010.2 |
| 20260906054705 | 67 | 5 | 0.9 | 1.7 | 0.00 | 0.00 | 0.00 | 90 | 1010.3 |
| 20260906054206 | 67 | 53 | 0.0 | 0.0 | 0.00 | 0.00 | 0.00 | 90 | 1010.3 |
| 20260906053705 | 67 | 54 | 0.0 | 0.0 | 0.00 | 0.00 | 0.00 | 90 | 1010.3 |
| 20260906053205 | 67 | 102 | 0.0 | 0.0 | 0.00 | 0.00 | 0.00 | 89 | 1010.4 |
| 20260906052706 | 67 | 102 | 0.0 | 0.0 | 0.00 | 0.00 | 0.00 | 89 | 1010.4 |
| 20260906051205 | 67 | 102 | 0.0 | 0.9 | 0.00 | 0.00 | 0.00 | 88 | 1010.5 |
| 20260906050705 | 67 | 102 | 0.0 | 1.7 | 0.00 | 0.00 | 0.00 | 88 | 1010.5 |
| 20260906045706 | 67 | 102 | 0.0 | 0.0 | 0.00 | 0.00 | 0.00 | 88 | 1010.5 |
| 20260906045205 | 68 | 102 | 0.0 | 0.0 | 0.00 | 0.00 | 0.00 | 88 | 1010.6 |
| 20260906044705 | 68 | 102 | 0.0 | 0.9 | 0.00 | 0.00 | 0.00 | 88 | 1010.6 |
| 20260906044206 | 68 | 102 | 0.0 | 0.9 | 0.00 | 0.00 | 0.00 | 89 | 1010.5 |
| 20260906043705 | 68 | 102 | 0.0 | 0.9 | 0.00 | 0.00 | 0.00 | 89 | 1010.5 |
| 20260906043205 | 68 | 102 | 0.0 | 0.9 | 0.00 | 0.00 | 0.00 | 89 | 1010.6 |
| 20260906042705 | 68 | 102 | 0.0 | 0.9 | 0.00 | 0.00 | 0.00 | 89 | 1010.6 |
| 20260906042206 | 68 | 102 | 0.0 | 0.0 | 0.00 | 0.00 | 0.00 | 88 | 1010.5 |
| 20260906041205 | 68 | 102 | 0.0 | 0.9 | 0.00 | 0.00 | 0.00 | 89 | 1010.5 |
| 20260906040705 | 69 | 102 | 0.0 | 0.9 | 0.00 | 0.00 | 0.00 | 89 | 1010.6 |
| 20260906035705 | 69 | 102 | 0.0 | 0.0 | 0.00 | 0.00 | 0.00 | 89 | 1010.7 |
| 20260906035206 | 69 | 102 | 0.0 | 0.0 | 0.00 | 0.00 | 0.00 | 89 | 1010.7 |
| 20260906034705 | 69 | 102 | 0.0 | 0.9 | 0.00 | 0.00 | 0.00 | 89 | 1010.8 |
| 20260906034205 | 69 | 102 | 0.0 | 0.9 | 0.00 | 0.00 | 0.00 | 88 | 1010.7 |
| 20260906033705 | 69 | 102 | 0.0 | 0.9 | 0.00 | 0.00 | 0.00 | 87 | 1010.7 |
| 20260906033205 | 69 | 102 | 0.0 | 0.9 | 0.00 | 0.00 | 0.00 | 87 | 1010.7 |
| 20260906032705 | 69 | 102 | 0.0 | 0.9 | 0.00 | 0.00 | 0.00 | 87 | 1010.7 |
| 20260906032205 | 69 | 102 | 0.9 | 0.9 | 0.00 | 0.00 | 0.00 | 87 | 1010.7 |
| 20260906031705 | 69 | 102 | 0.0 | 0.9 | 0.00 | 0.00 | 0.00 | 87 | 1010.7 |
| 20260906031206 | 69 | 102 | 0.0 | 0.0 | 0.00 | 0.00 | 0.00 | 86 | 1010.8 |
| 20260906030706 | 69 | 102 | 0.0 | 0.0 | 0.00 | 0.00 | 0.00 | 86 | 1010.8 |
| 20260906030205 | 69 | 102 | 0.0 | 0.0 | 0.00 | 0.00 | 0.00 | 86 | 1010.8 |
| 20260906025705 | 70 | 102 | 0.0 | 0.0 | 0.00 | 0.00 | 0.00 | 86 | 1010.7 |
| 20260906025205 | 70 | 102 | 0.0 | 0.0 | 0.00 | 0.00 | 0.00 | 88 | 1010.6 |
| 20260906024706 | 70 | 102 | 0.0 | 0.0 | 0.00 | 0.00 | 0.00 | 88 | 1010.5 |
| 20260906024205 | 70 | 102 | 0.0 | 0.0 | 0.00 | 0.00 | 0.00 | 88 | 1010.7 |
| 20260906023705 | 70 | 102 | 0.0 | 0.9 | 0.00 | 0.00 | 0.00 | 88 | 1010.7 |
| 20260906022705 | 70 | 102 | 0.0 | 0.0 | 0.00 | 0.00 | 0.00 | 87 | 1010.7 |
| 20260906022205 | 70 | 102 | 0.0 | 0.0 | 0.00 | 0.00 | 0.00 | 86 | 1010.6 |
| 20260906020705 | 71 | 102 | 0.0 | 0.9 | 0.00 | 0.00 | 0.00 | 85 | 1010.6 |
| 20260906020205 | 71 | 102 | 0.0 | 0.0 | 0.00 | 0.00 | 0.00 | 85 | 1010.5 |
| 20260906015205 | 71 | 102 | 0.0 | 0.0 | 0.00 | 0.00 | 0.00 | 84 | 1010.4 |
| 20260906014705 | 71 | 102 | 0.0 | 0.0 | 0.00 | 0.00 | 0.00 | 83 | 1010.4 |
| 20260906014205 | 71 | 102 | 0.0 | 0.9 | 0.00 | 0.00 | 0.00 | 82 | 1010.4 |
| 20260906013705 | 71 | 102 | 0.9 | 0.9 | 0.00 | 0.00 | 0.00 | 82 | 1010.2 |
| 20260906013205 | 71 | 102 | 0.0 | 0.9 | 0.00 | 0.00 | 0.00 | 81 | 1010.1 |
| 20260906012205 | 72 | 102 | 0.0 | 0.0 | 0.00 | 0.00 | 0.00 | 80 | 1010.0 |
| 20260906011705 | 72 | 102 | 0.0 | 0.0 | 0.00 | 0.00 | 0.00 | 80 | 1009.9 |
| 20260906011206 | 72 | 102 | 0.0 | 0.0 | 0.00 | 0.00 | 0.00 | 80 | 1009.9 |
| 20260906010206 | 72 | 102 | 0.0 | 0.0 | 0.00 | 0.00 | 0.00 | 79 | 1009.9 |
| 20260906005705 | 72 | 102 | 0.0 | 0.0 | 0.00 | 0.00 | 0.00 | 78 | 1009.9 |
| 20260906005206 | 73 | 102 | 0.0 | 0.9 | 0.00 | 0.00 | 0.00 | 78 | 1009.8 |
| 20260906004705 | 73 | 102 | 0.0 | 0.9 | 0.00 | 0.00 | 0.00 | 78 | 1009.8 |
| 20260906004205 | 73 | 102 | 0.0 | 0.0 | 0.00 | 0.00 | 0.00 | 77 | 1009.8 |
| 20260906003705 | 73 | 102 | 0.0 | 0.0 | 0.00 | 0.00 | 0.00 | 77 | 1009.8 |
| 20260906003206 | 73 | 102 | 0.0 | 0.0 | 0.00 | 0.00 | 0.00 | 77 | 1009.8 |
| 20260906002705 | 73 | 102 | 0.0 | 0.0 | 0.00 | 0.00 | 0.00 | 77 | 1009.7 |
| 20260906002206 | 74 | 102 | 0.0 | 0.9 | 0.00 | 0.00 | 0.00 | 76 | 1009.6 |
| 20260906001705 | 74 | 102 | 0.0 | 0.9 | 0.00 | 0.00 | 0.00 | 76 | 1009.6 |
| 20260906001205 | 74 | 102 | 0.0 | 0.9 | 0.00 | 0.00 | 0.00 | 76 | 1009.5 |
| 20260906000705 | 74 | 102 | 0.0 | 0.9 | 0.00 | 0.00 | 0.00 | 75 | 1009.4 |
| 20260906000205 | 74 | 102 | 0.0 | 0.0 | 0.00 | 0.00 | 0.00 | 75 | 1009.4 |
| 20260905235705 | 75 | 102 | 0.0 | 0.0 | 0.00 | 0.00 | 0.00 | 75 | 1009.4 |
| 20260905235205 | 75 | 102 | 0.0 | 0.0 | 0.00 | 0.00 | 0.00 | 75 | 1009.4 |
| 20260905234706 | 75 | 102 | 0.0 | 0.0 | 0.00 | 0.00 | 0.00 | 75 | 1009.4 |
| 20260905233705 | 76 | 102 | 0.0 | 0.0 | 0.00 | 0.00 | 0.00 | 73 | 1009.2 |
| 20260905233205 | 76 | 103 | 0.0 | 0.0 | 0.00 | 0.00 | 0.00 | 73 | 1009.1 |
| 20260905232705 | 76 | 103 | 0.0 | 0.0 | 0.00 | 0.00 | 0.00 | 73 | 1009.2 |
| 20260905232205 | 77 | 103 | 0.0 | 0.9 | 0.00 | 0.00 | 0.00 | 71 | 1009.1 |
| 20260905231205 | 77 | 1 | 0.0 | 0.9 | 0.00 | 0.00 | 0.00 | 70 | 1009.1 |
| 20260905230705 | 77 | 1 | 0.0 | 0.0 | 0.00 | 0.00 | 0.00 | 70 | 1009.1 |
| 20260905230205 | 78 | 1 | 0.0 | 0.9 | 0.00 | 0.00 | 0.00 | 71 | 1009.2 |
| 20260905225706 | 78 | 5 | 0.0 | 0.9 | 0.00 | 0.00 | 0.00 | 70 | 1009.1 |
| 20260905225205 | 78 | 19 | 0.0 | 2.6 | 0.00 | 0.00 | 0.00 | 69 | 1009.0 |
| 20260905222705 | 78 | 9 | 1.7 | 2.6 | 0.00 | 0.00 | 0.00 | 67 | 1008.7 |
| 20260905222205 | 78 | 346 | 0.9 | 1.7 | 0.00 | 0.00 | 0.00 | 66 | 1008.7 |
| 20260905221205 | 79 | 6 | 1.7 | 5.2 | 0.00 | 0.00 | 0.00 | 66 | 1008.8 |
| 20260905220705 | 79 | 5 | 0.0 | 1.7 | 0.00 | 0.00 | 0.00 | 67 | 1008.7 |
| 20260905220205 | 79 | 5 | 0.0 | 1.7 | 0.00 | 0.00 | 0.00 | 68 | 1008.7 |
| 20260905215706 | 79 | 37 | 0.9 | 2.6 | 0.00 | 0.00 | 0.00 | 68 | 1008.7 |
| 20260905214705 | 79 | 42 | 0.9 | 2.6 | 0.00 | 0.00 | 0.00 | 65 | 1008.6 |
| 20260905214205 | 79 | 43 | 0.9 | 1.7 | 0.00 | 0.00 | 0.00 | 65 | 1008.6 |
| 20260905213205 | 80 | 329 | 0.0 | 2.6 | 0.00 | 0.00 | 0.00 | 63 | 1008.7 |